Regional Weather Roundup
Issued by NWS Midland/Odessa, TX

Skip options and go directly to product.
Home | Oldest Version | Next Version | Current Version | All | Text Only | Save Text | Print | Product List | Glossary On

Skip product version selection by date and time.   
428
ASUS44 KMAF 220201
RWRMAF
MIDLAND AREA WEATHER ROUNDUP
NATIONAL WEATHER SERVICE MIDLAND TX
900 PM CDT THU MAY 21 2015

...IN SOUTHWEST TEXAS AND SOUTHEAST NEW MEXICO...

CITY           SKY/WX    TMP DP  RH WIND       PRES   REMARKS
ALPINE         CLOUDY    54  54  98 E13       30.16F THUNDER VSB 1/2
ANDREWS        CLOUDY    52  52 100 E12       30.14R FOG
ARTESIA        DRIZZLE   52  52 100 SE7       30.13R
BIG SPRING     CLOUDY    59  52  79 NE14      30.13F
CARLSBAD       LGT RAIN  53  52  96 SE8       30.11R FOG
DRYDEN           N/A     68  60  75 N7        30.04R
FORT STOCKTON  LGT RAIN  56  55  97 SE10      30.10S FOG
GUAD PASS      LGT RAIN  47  32  56 NE40      30.07R VSB 1/4 WCI  37
HOBBS          CLOUDY    50  50 100 E12       30.11F FOG
MARFA          MOCLDY   N/A N/A N/A E8        30.11S
MIDLAND AIRPK  CLOUDY    57  52  84 E7        30.13R
MIDLAND INTL   CLOUDY    55  53  93 E12       30.11R FOG
ODESSA         CLOUDY    54  52  93 E9        30.12S FOG
PECOS          RAIN      55  53  92 E12       30.07F
PRESIDIO       FAIR      69  57  66 NE20G32   29.96S
SEMINOLE       CLOUDY    52  51  97 E9        30.14R FOG
SNYDER         HVY RAIN  55  54  96 E16       30.14F
WINK           CLOUDY    56  51  84 E12       30.07F
$$
...OTHER STATIONS IN TEXAS...

CITY           SKY/WX    TMP DP  RH WIND       PRES   REMARKS
ABILENE        CLOUDY    60  53  77 E12       30.14S
AMARILLO       LGT RAIN  50  49  96 SE10      30.16R
AUSTIN         CLOUDY    64  60  87 NE14      30.09F
BROWNSVILLE    CLOUDY    77  74  90 E7        29.99R
CORPUS CHRISTI CLOUDY    75  72  90 NE9       30.01S
DALLAS FTW     CLOUDY    63  58  83 CALM      30.14R
DEL RIO        CLOUDY    70  67  90 NW5       29.99R
EL PASO        TSTM      67  55  65 E10       29.96R
HOUSTON INT    CLOUDY    71  69  93 NE7       30.07R
LUBBOCK        CLOUDY    53  51  93 E8        30.15R
SAN ANGELO     CLOUDY    63  57  81 E7        30.11R
SAN ANTONIO    CLOUDY    69  62  78 NE9       30.09F
WACO           CLOUDY    63  57  81 NE5       30.15R
WICHITA FALLS  NOT AVBL
$$
...OTHER LOCATIONS IN NEW MEXICO...

CITY           SKY/WX    TMP DP  RH WIND       PRES   REMARKS
ALAMAGORDO     LGT RAIN  55  54  94 W21G35    30.06R
ALBUQUERQUE    CLOUDY    52  44  74 E30G38    30.03S
CANNON AFB     CLOUDY    46  46 100 E9        30.15R FOG
CLOVIS         CLOUDY    46  45  93 E10       30.16S
HOLLOMAN AFB   LGT RAIN  55  54  94 S10       30.03S FOG
ROSWELL        LGT RAIN  51  50  96 SE7       30.12R VSB 1
RUIDOSO        CLOUDY    43  43 100 E6        30.15R FOG     WCI  39
SANTA FE       LGT RAIN  47  43  86 E9        30.11S
TRUTH OR CONSE MOCLDY    67  38  34 S12       29.95R
TUCUMCARI      LGT RAIN  50  47  89 E10       30.13F FOG
$$

USA.gov is the U.S. government's official web portal to all federal, state and local government web resources and services.